• In Moldova, Republic
  • List of Countries
  • For 7 days
  • Water Temperature
  • Satellite Maps
  • Weather Map
  • Weather Widgets
  • user-avatar
    Login

    Hourly Weather Linz

    Today, 18 November, Saturday

    Time Temperature Precipitation Wind Pressure Humidity
    00:00 +2°C° 0 mm 1 mps 739 mmHg 89%
    01:00 +1°C° 0 mm 0 mps 738 mmHg 89%
    02:00 +1°C° 0 mm 0 mps 738 mmHg 89%
    03:00 +1°C° 0 mm 0 mps 738 mmHg 89%
    04:00 +2°C° 0 mm 1 mps 738 mmHg 89%
    05:00 +2°C° 0 mm 1 mps 737 mmHg 89%
    06:00 +2°C° 0 mm 1 mps 737 mmHg 89%
    07:00 +2°C° 0 mm 1 mps 737 mmHg 90%
    08:00 +3°C° 0 mm 1 mps 737 mmHg 86%
    09:00 +4°C° 0 mm 1 mps 737 mmHg 82%
    10:00 +5°C° 0 mm 1 mps 737 mmHg 78%
    11:00 +4°C° 0 mm 2 mps 736 mmHg 76%
    12:00 +5°C° 0 mm 2 mps 736 mmHg 75%
    13:00 +6°C° 0 mm 2 mps 735 mmHg 74%
    14:00 +5°C° 0 mm 2 mps 735 mmHg 78%
    15:00 +4°C° 0 mm 2 mps 735 mmHg 82%
    16:00 +4°C° 0 mm 2 mps 734 mmHg 86%
    17:00 +4°C° 0 mm 2 mps 734 mmHg 87%
    18:00 +2°C° 0 mm 3 mps 734 mmHg 88%
    19:00 +2°C° 0 mm 3 mps 735 mmHg 90%
    20:00 +2°C° 0 mm 3 mps 734 mmHg 89%
    21:00 +1°C° 0 mm 4 mps 734 mmHg 88%
    22:00 +1°C° 0 mm 4 mps 734 mmHg 87%
    23:00 +1°C° 0 mm 4 mps 734 mmHg 87%

    Tomorrow, 19 November, Sunday

    Time Temperature Precipitation Wind Pressure Humidity
    00:00 +1°C° 0 mm 4 mps 734 mmHg 86%
    01:00 +1°C° 0 mm 4 mps 734 mmHg 86%
    02:00 +1°C° 0.1 mm 4 mps 733 mmHg 86%
    03:00 0°C° 0.1 mm 4 mps 733 mmHg 87%
    04:00 0°C° 0.1 mm 4 mps 732 mmHg 87%
    05:00 +1°C° 0.4 mm 3 mps 732 mmHg 87%
    06:00 +2°C° 0.4 mm 3 mps 732 mmHg 87%
    07:00 +2°C° 0.4 mm 3 mps 732 mmHg 87%
    08:00 +2°C° 0.8 mm 3 mps 732 mmHg 88%
    09:00 +2°C° 0.8 mm 3 mps 732 mmHg 89%
    10:00 +1°C° 0.8 mm 4 mps 732 mmHg 89%
    11:00 +3°C° 0.6 mm 4 mps 732 mmHg 88%
    12:00 +3°C° 0.6 mm 4 mps 732 mmHg 86%
    13:00 +3°C° 0.6 mm 4 mps 732 mmHg 85%
    14:00 +3°C° 0.2 mm 4 mps 732 mmHg 85%
    15:00 +3°C° 0.2 mm 4 mps 732 mmHg 85%
    16:00 +1°C° 0.2 mm 4 mps 732 mmHg 85%
    17:00 +1°C° 0.1 mm 4 mps 733 mmHg 86%
    18:00 +1°C° 0.1 mm 4 mps 733 mmHg 87%
    19:00 +1°C° 0.1 mm 4 mps 733 mmHg 88%
    20:00 +1°C° 0.2 mm 4 mps 734 mmHg 88%
    21:00 +1°C° 0.2 mm 5 mps 734 mmHg 89%
    22:00 +1°C° 0.2 mm 5 mps 734 mmHg 89%
    23:00 +1°C° 0.3 mm 5 mps 734 mmHg 89%

    Day after tomorrow, 20 November, Monday

    Time Temperature Precipitation Wind Pressure Humidity
    00:00 +1°C° 0.3 mm 5 mps 734 mmHg 89%
    01:00 +1°C° 0.3 mm 5 mps 735 mmHg 89%
    02:00 +1°C° 0.3 mm 5 mps 735 mmHg 89%
    03:00 +1°C° 0.3 mm 5 mps 735 mmHg 89%
    04:00 +1°C° 0.3 mm 5 mps 735 mmHg 89%
    05:00 +1°C° 0.2 mm 5 mps 735 mmHg 89%
    06:00 +1°C° 0.2 mm 5 mps 736 mmHg 89%
    07:00 +1°C° 0.2 mm 5 mps 736 mmHg 89%
    08:00 +1°C° 0.1 mm 5 mps 736 mmHg 88%
    09:00 +1°C° 0.1 mm 5 mps 736 mmHg 87%
    10:00 +1°C° 0.1 mm 5 mps 736 mmHg 86%
    11:00 +2°C° 0 mm 5 mps 736 mmHg 85%
    12:00 +3°C° 0 mm 4 mps 736 mmHg 84%
    13:00 +3°C° 0 mm 4 mps 736 mmHg 83%
    14:00 +3°C° 0.2 mm 4 mps 735 mmHg 84%
    15:00 +3°C° 0.2 mm 3 mps 735 mmHg 86%
    16:00 +2°C° 0.2 mm 3 mps 735 mmHg 87%
    17:00 +2°C° 0.4 mm 3 mps 735 mmHg 88%
    18:00 +2°C° 0.4 mm 3 mps 734 mmHg 88%
    19:00 +2°C° 0.4 mm 3 mps 734 mmHg 89%
    20:00 +2°C° 0.4 mm 3 mps 734 mmHg 90%
    21:00 +2°C° 0.4 mm 3 mps 734 mmHg 90%
    22:00 +3°C° 0.4 mm 3 mps 733 mmHg 90%
    23:00 +3°C° 0.2 mm 3 mps 733 mmHg 91%

    21 November, Tuesday

    Time Temperature Precipitation Wind Pressure Humidity
    00:00 +3°C° 0.2 mm 3 mps 733 mmHg 91%
    01:00 +4°C° 0.2 mm 4 mps 732 mmHg 91%
    02:00 +4°C° 0.2 mm 4 mps 732 mmHg 91%
    03:00 +4°C° 0.2 mm 4 mps 732 mmHg 91%
    04:00 +4°C° 0.2 mm 4 mps 732 mmHg 90%
    05:00 +5°C° 0.3 mm 5 mps 732 mmHg 91%
    06:00 +5°C° 0.3 mm 5 mps 732 mmHg 91%
    07:00 +5°C° 0.3 mm 5 mps 732 mmHg 92%
    08:00 +5°C° 0.1 mm 5 mps 732 mmHg 92%
    09:00 +6°C° 0.1 mm 5 mps 733 mmHg 91%
    10:00 +6°C° 0.1 mm 5 mps 733 mmHg 91%
    11:00 +6°C° 0.1 mm 4 mps 733 mmHg 91%
    12:00 +6°C° 0.1 mm 4 mps 733 mmHg 91%
    13:00 +7°C° 0.1 mm 4 mps 733 mmHg 91%
    14:00 +6°C° 0.1 mm 4 mps 733 mmHg 91%
    15:00 +6°C° 0.1 mm 4 mps 733 mmHg 92%
    16:00 +7°C° 0.1 mm 3 mps 733 mmHg 92%
    17:00 +7°C° 0.2 mm 3 mps 733 mmHg 92%
    18:00 +7°C° 0.2 mm 3 mps 734 mmHg 93%
    19:00 +7°C° 0.2 mm 3 mps 734 mmHg 93%
    20:00 +7°C° 0.4 mm 3 mps 734 mmHg 93%
    21:00 +7°C° 0.4 mm 2 mps 735 mmHg 93%
    22:00 +7°C° 0.4 mm 2 mps 735 mmHg 93%
    23:00 +7°C° 0.1 mm 2 mps 735 mmHg 93%

    22 November, Wednesday

    Time Temperature Precipitation Wind Pressure Humidity
    00:00 +6°C° 0.1 mm 2 mps 735 mmHg 92%
    01:00 +6°C° 0.1 mm 2 mps 735 mmHg 92%
    02:00 +7°C° 0 mm 1 mps 735 mmHg 91%
    03:00 +6°C° 0 mm 1 mps 735 mmHg 90%
    04:00 +6°C° 0 mm 1 mps 734 mmHg 90%
    05:00 +5°C° 0 mm 1 mps 735 mmHg 89%
    06:00 +5°C° 0 mm 1 mps 735 mmHg 88%
    07:00 +5°C° 0 mm 1 mps 735 mmHg 87%
    08:00 +6°C° 0 mm 1 mps 735 mmHg 85%
    09:00 +8°C° 0 mm 1 mps 735 mmHg 84%
    10:00 +9°C° 0 mm 1 mps 735 mmHg 82%
    11:00 +10°C° 0 mm 1 mps 735 mmHg 80%
    12:00 +10°C° 0 mm 0 mps 734 mmHg 78%
    13:00 +11°C° 0 mm 0 mps 734 mmHg 77%
    14:00 +10°C° 0 mm 0 mps 734 mmHg 80%
    15:00 +8°C° 0 mm 0 mps 734 mmHg 83%
    16:00 +7°C° 0 mm 0 mps 734 mmHg 86%
    17:00 +8°C° 0 mm 1 mps 734 mmHg 85%
    18:00 +7°C° 0 mm 1 mps 734 mmHg 85%
    19:00 +7°C° 0 mm 1 mps 734 mmHg 84%
    20:00 +6°C° 0 mm 1 mps 734 mmHg 83%
    21:00 +6°C° 0 mm 1 mps 734 mmHg 82%
    22:00 +6°C° 0 mm 1 mps 734 mmHg 82%
    23:00 +6°C° 0 mm 1 mps 734 mmHg 81%

    23 November, Thursday

    Time Temperature Precipitation Wind Pressure Humidity
    00:00 +6°C° 0 mm 1 mps 734 mmHg 81%
    01:00 +6°C° 0 mm 1 mps 734 mmHg 81%
    02:00 +6°C° 0 mm 1 mps 734 mmHg 81%
    03:00 +5°C° 0 mm 1 mps 734 mmHg 80%
    04:00 +5°C° 0 mm 1 mps 734 mmHg 80%
    05:00 +5°C° 0 mm 1 mps 734 mmHg 80%
    06:00 +5°C° 0 mm 1 mps 734 mmHg 80%
    07:00 +5°C° 0 mm 1 mps 734 mmHg 80%
    08:00 +6°C° 0 mm 1 mps 734 mmHg 79%
    09:00 +8°C° 0 mm 1 mps 734 mmHg 77%
    10:00 +9°C° 0 mm 1 mps 734 mmHg 76%
    11:00 +10°C° 0 mm 1 mps 733 mmHg 75%
    12:00 +11°C° 0 mm 1 mps 733 mmHg 74%
    13:00 +11°C° 0 mm 0 mps 733 mmHg 73%
    14:00 +9°C° 0 mm 0 mps 733 mmHg 78%
    15:00 +8°C° 0 mm 0 mps 733 mmHg 83%
    16:00 +7°C° 0 mm 0 mps 733 mmHg 88%
    17:00 +7°C° 0 mm 1 mps 734 mmHg 88%
    18:00 +7°C° 0 mm 1 mps 734 mmHg 88%
    19:00 +6°C° 0 mm 1 mps 734 mmHg 87%
    20:00 +6°C° 0 mm 1 mps 735 mmHg 86%
    21:00 +6°C° 0 mm 1 mps 735 mmHg 85%
    22:00 +6°C° 0 mm 1 mps 735 mmHg 84%
    23:00 +6°C° 0 mm 1 mps 736 mmHg 83%
    Show more